Flag for Tonga Weather past 2 weeks in Nukualofa, Tonga

Now
77 °F

Passing clouds.


Feels Like: 79 °F
Forecast: 75 / 79 °F
Wind: No wind

Location: Fua'Amotu

Current Time: Oct 22, 2014 at 6:21:27 PM

Latest Report: Oct 22, 2014 at 6:00 PM


Visibility: N/A

Pressure: 29.92 "Hg

Humidity: 69%

Dew point: 66 °F

Location of NukualofaLocation

Historic Weather in Nukualofa — Graph

°F

Nukualofa temperature yesterday

Maximum temperature yesterday: 79 °F (at 11:00 AM)
Minimum temperature yesterday: 68 °F (at 12:00 AM)
Average temperature yesterday: 73 °F

Past Weeks' High & Low Weather Summary

 TemperatureHumidityPressure
High81 °F (Oct 10, 2:00 PM)100% (Oct 11, 7:00 AM)30.12 "Hg (Oct 11, 7:00 AM)
Low63 °F (Oct 13, 4:00 AM)39% (Oct 12, 11:00 AM)29.80 "Hg (Oct 11, 6:00 PM)
Average73 °F77%29.99 "Hg
* Reported Oct 7 4:00 PM — Oct 22 4:00 PM, Nukualofa, Weather by CustomWeather, © 2014

Note: Actual official high and low records may vary slightly from our data, if they occured in-between our weather recording intervals... More about our weather records

Advertising

Nukualofa weather history for previous 24 hours

 ConditionsComfort  
Time TempWeatherWind HumidityBarometerVisibility
4:00 PM
Oct 22
77 °FPartly sunny.8 mph65%29.92 "HgN/A
3:00 PM79 °FPartly sunny.3 mph61%29.92 "HgN/A
2:00 PM79 °FPartly sunny.6 mph61%29.95 "HgN/A
1:00 PM79 °FPartly sunny.5 mph61%29.95 "HgN/A
12:00 PM79 °FPartly sunny.9 mph61%29.98 "HgN/A
11:00 AM79 °FPassing clouds.9 mph65%29.98 "HgN/A
10:00 AM77 °FScattered clouds.9 mph65%29.98 "HgN/A
9:00 AM75 °FScattered clouds.3 mph74%29.98 "HgN/A
8:00 AM73 °FScattered clouds.No wind74%30.01 "HgN/A
7:00 AM72 °FScattered clouds.No wind83%29.98 "HgN/A
6:00 AM70 °FPassing clouds.No wind83%29.95 "HgN/A
5:00 AM72 °FPassing clouds.No wind83%29.95 "HgN/A
4:00 AM72 °FPassing clouds.No wind88%29.95 "HgN/A
3:00 AM68 °FPassing clouds.No wind100%29.98 "HgN/A
2:00 AM68 °FPassing clouds.No wind100%29.98 "HgN/A
1:00 AM68 °FPassing clouds.No wind94%30.01 "HgN/A
12:00 AM68 °FPassing clouds.No wind94%30.01 "HgN/A
11:00 PM
Oct 21
68 °FPassing clouds.No wind94%30.01 "HgN/A
10:00 PM68 °FPassing clouds.No wind94%30.01 "HgN/A
9:00 PM68 °FPassing clouds.No wind94%30.01 "HgN/A
8:00 PM70 °FPassing clouds.No wind88%30.01 "HgN/A
7:00 PM73 °FPassing clouds.No wind74%29.98 "HgN/A
6:00 PM75 °FPassing clouds.No wind74%29.98 "HgN/A
Weather by CustomWeather, © 2014

See weather overviewHow to use our weather pages